Weather History for KWLD - November, 2013

Change the Weather History Date:

Friday, November 29, 2013

  Actual Average Record
Temperature  
Mean Temperature 41 °F -  
Max Temperature 55 °F 50 °F 72 °F (1998)
Min Temperature 27 °F 31 °F 17 °F (2001)
Degree Days  
Heating Degree Days 24    
Moisture  
Dew Point 27 °F    
Average Humidity 59    
Maximum Humidity 85    
Minimum Humidity 34    
Precipitation  
Precipitation 0.00 in - - ()
Sea Level Pressure  
Sea Level Pressure 30.36 in    
Wind  
Wind Speed 9 mph (SE)    
Max Wind Speed 16 mph    
Max Gust Speed -    
Visibility 10 miles    
Events      
Averages and records for this station are not official NWS values.
T = Trace of Precipitation, MM = Missing Value Source: NWS Daily Summary

Daily Weather History Graph

Daily Weather History Graph

Search for Another Location

Airport or City:

Trip Planner

Search our weather history database for the weather conditions in past years. The results will help you decide how hot, cold, wet, or windy it might be!

Date:

Astronomy

Nov. 29, 2013 Rise Set
Actual Time 7:21 AM CST 5:11 PM CST
Civil Twilight 6:52 AM CST 5:39 PM CST
Nautical Twilight 6:20 AM CST 6:12 PM CST
Astronomical Twilight 5:49 AM CST 6:43 PM CST
Moon 3:32 AM CST (11/29) 2:53 PM CST (11/29)
Length of Visible Light 10h 47m
Length of Day
9h 49m
Waning Crescent, 14% of the Moon is Illuminated
Nov 29
Waning Crescent
Dec 2
New
Dec 9
First Quarter
Dec 17
Full
Dec 25
Last Quarter

Hourly Weather History & Observations

Time (CST) Temp. Windchill Dew Point Humidity Pressure Visibility Wind Dir Wind Speed Gust Speed Precip Events Conditions
12:54 AM 33.1 °F 26.9 °F 24.1 °F 70% 30.44 in 10.0 mi East 6.9 mph - N/A   Clear
1:54 AM 32.0 °F 25.6 °F 23.0 °F 69% 30.44 in 10.0 mi East 6.9 mph - N/A   Clear
2:54 AM 30.9 °F 23.5 °F 23.0 °F 72% 30.44 in 10.0 mi East 8.1 mph - N/A   Clear
3:54 AM 28.9 °F 23.9 °F 23.0 °F 78% 30.44 in 10.0 mi ESE 4.6 mph - N/A   Clear
4:54 AM 28.9 °F 23.9 °F 23.0 °F 78% 30.44 in 10.0 mi ESE 4.6 mph - N/A   Clear
5:54 AM 28.0 °F 21.7 °F 23.0 °F 81% 30.45 in 10.0 mi ESE 5.8 mph - N/A   Clear
6:54 AM 27.0 °F 21.6 °F 23.0 °F 85% 30.45 in 10.0 mi ESE 4.6 mph - N/A   Clear
7:54 AM 28.0 °F 21.7 °F 24.1 °F 85% 30.46 in 10.0 mi SE 5.8 mph - N/A   Clear
8:54 AM 35.1 °F 28.6 °F 27.0 °F 72% 30.46 in 10.0 mi SE 8.1 mph - N/A   Clear
9:54 AM 42.1 °F 35.7 °F 30.0 °F 62% 30.44 in 10.0 mi SSE 11.5 mph - N/A   Clear
10:54 AM 48.0 °F - 30.0 °F 50% 30.43 in 10.0 mi South 15.0 mph - N/A   Clear
11:54 AM 50.0 °F - 28.9 °F 44% 30.40 in 10.0 mi South 11.5 mph - N/A   Clear
12:54 PM 53.1 °F - 28.9 °F 40% 30.35 in 10.0 mi SSE 15.0 mph - N/A   Clear
1:54 PM 55.0 °F - 28.9 °F 37% 30.31 in 10.0 mi SSE 16.1 mph - N/A   Clear
2:54 PM 55.9 °F - 28.0 °F 34% 30.28 in 10.0 mi SSE 16.1 mph - N/A   Clear
3:54 PM 54.0 °F - 27.0 °F 35% 30.27 in 10.0 mi SSE 13.8 mph - N/A   Clear
4:54 PM 50.0 °F - 27.0 °F 41% 30.25 in 10.0 mi SSE 10.4 mph - N/A   Clear
5:54 PM 46.0 °F 41.4 °F 27.0 °F 47% 30.25 in 10.0 mi SSE 9.2 mph - N/A   Clear
6:54 PM 46.0 °F 41.0 °F 27.0 °F 47% 30.26 in 10.0 mi SSE 10.4 mph - N/A   Clear
7:54 PM 44.1 °F 40.1 °F 27.0 °F 51% 30.27 in 10.0 mi SE 6.9 mph - N/A   Clear
8:54 PM 43.0 °F 38.8 °F 26.1 °F 51% 30.27 in 10.0 mi ESE 6.9 mph - N/A   Clear
9:54 PM 41.0 °F 35.8 °F 28.0 °F 60% 30.26 in 10.0 mi SE 8.1 mph - N/A   Clear
10:54 PM 41.0 °F 34.7 °F 28.9 °F 62% 30.24 in 10.0 mi SSE 10.4 mph - N/A   Clear
11:54 PM 42.1 °F 35.2 °F 30.9 °F 65% 30.22 in 10.0 mi SSE 12.7 mph - N/A   Clear